Orbital Elements at Epoch 2459200.5 (2020-Dec-17.0) TDB
Reference: JPL 27 (heliocentric ecliptic J2000)
Element | Value | Uncertainty (1-sigma) | Units |
e | .08592619477539332 | 3.5241e-08 | |
a | 2.563231468798903 | 1.032e-08 | au |
q | 2.342982742356471 | 9.1345e-08 | au |
i | 2.789975972077658 | 3.6571e-06 | deg |
node | 175.8063202577656 | 8.0105e-05 | deg |
peri | 94.61714986072209 | 8.3352e-05 | deg |
M | 292.8100395139405 | 2.564e-05 | deg |
tp | 2459480.257701537416 (2021-Sep-22.75770154) | 0.00010723 | TDB |
period | 1498.925908348546 4.10 | 9.052e-06 2.478e-08 | d yr |
n | .2401719778108532 | 1.4504e-09 | deg/d |
Q | 2.783480195241335 | 1.1206e-08 | au |
|
| | Orbit Determination Parameters
Additional Information
|